Regional Weather Roundup
Issued by NWS Upton, NY

Current Version | Previous Version | Graphics & Text | Print | Product List | Glossary Off
Versions: 1 2 3 4 5 6 7 8 9 10 11 12 13 14 15 16 17 18 19 20 21 22 23 24 25 26 27
000 ASUS41 KOKX 221505 RWROKX REGIONAL WEATHER ROUNDUP NATIONAL WEATHER SERVICE NEW YORK NY 1100 AM EDT WED OCT 22 2014 NOTE: "FAIR" INDICATES FEW OR NO CLOUDS BELOW 12,000 FEET WITH NO SIGNIFICANT WEATHER AND/OR OBSTRUCTIONS TO VISIBILITY. NYZ071-072-176-178-NJZ106-104-221600- NEW YORK CITY METRO AREA CITY SKY/WX TMP DP RH WIND PRES REMARKS CENTRAL PARK LGT RAIN 55 51 86 MISG 29.95F LAGUARDIA APRT NOT AVBL KENNEDY INTL NOT AVBL NEWARK/LIBERTY NOT AVBL BRNX BOT. GARD N/A 54 50 87 NE8 29.95S TETERBORO NOT AVBL $$ NYZ177-179-078>081-221600- LONG ISLAND NEW YORK CITY SKY/WX TMP DP RH WIND PRES REMARKS FARMINGDALE CLOUDY 55 52 89 NE15G23 29.91F ISLIP NOT AVBL SHIRLEY NOT AVBL WESTHAMPTON NOT AVBL MONTAUK POINT N/A 59 54 83 NE12G23 29.92S $$ NYZ052-065-067-221600- HUDSON VALLEY CITY SKY/WX TMP DP RH WIND PRES REMARKS WHITE PLAINS NOT AVBL NEWBURGH NOT AVBL MONTGOMERY NOT AVBL POUGHKEEPSIE CLOUDY 52 48 86 N10 30.00F ALBANY NOT AVBL $$ NJZ001-105-106-008-010-013-015-019>022-104-221600- NEW JERSEY CITY SKY/WX TMP DP RH WIND PRES REMARKS NEWARK/LIBERTY NOT AVBL TETERBORO NOT AVBL CALDWELL NOT AVBL MORRISTOWN NOT AVBL SOMERVILLE NOT AVBL SUSSEX NOT AVBL ANDOVER N/A 52 48 86 NE9G21 29.98R TRENTON RAIN 53 50 89 NE15G23 29.90S FOG MILLVILLE NOT AVBL ATLANTIC CITY CLOUDY 58 54 86 N15 29.81F WRIGHTSTOWN NOT AVBL TOMS RIVER NOT AVBL BELMAR NOT AVBL $$ PAZ047>061-062-071-221600- EASTERN PENNSYLVANIA CITY SKY/WX TMP DP RH WIND PRES REMARKS PHILADELPHIA NOT AVBL ALLENTOWN NOT AVBL SCRANTON NOT AVBL $$ CTZ002-004>006-009-010-012-RIZ004-006-007-MAZ004-011-015-221600- SOUTHERN NEW ENGLAND IN CT CITY SKY/WX TMP DP RH WIND PRES REMARKS BRADLEY INTL NOT AVBL HARTFORD NOT AVBL DANBURY NOT AVBL WTRBRY/OXFORD NOT AVBL BRIDGEPORT NOT AVBL MERIDEN NOT AVBL NEW HAVEN NOT AVBL CHESTER NOT AVBL GROTON NOT AVBL WILLIMANTIC NOT AVBL IN RI CITY SKY/WX TMP DP RH WIND PRES REMARKS PROVIDENCE DRIZZLE 56 53 90 N20G26 29.95S FOG BLOCK ISLAND NOT AVBL WESTERLY NOT AVBL IN MA CITY SKY/WX TMP DP RH WIND PRES REMARKS BOSTON NOT AVBL WORCESTER LGT RAIN 48 47 96 NE16G30 30.01S FOG WESTFIELD NOT AVBL PROVINCETOWN NOT AVBL NANTUCKET LGT RAIN 59 57 94 N17 29.87F VSB 1 $$ ANZ330-335-338-340-345-350-353-355-221600- COASTAL MARINE OBSERVATIONS STATION/POSITION TIME SKY/WX TEMP WIND PRES VSBY WAVE AIR SEA DIR/SP/G HT/PER (UTC) (F) (DEG/KT/KT) (MB) (MI) (FT/S) NY HARB ENTRANCE NOT AVBL 4S FIRE IS 1400 63 N/A 6/ 6 20S FIRE ISLAND 1400 58 64 30/ 27/ 31 1010.3 9/ 7 23SW MTP 1400 N/A 7/ 6 HUDSON CANYON 1400 59 66 340/ 12/ 19 1007.7 EXECUTION ROCKS 1400 56 63 10/ 17/ 25 N/A WESTERN LI SOUND 1400 56 30/ 16/ 21 N/A 3/ 4 CENTRAL LI SOUND 1400 57 64 30/ 19/ 23 N/A 2/ 3 EASTERN LI SOUND 1400 58 63 30/ 16/ 19 N/A ROBBINS REEF 1400 56 20/ 20/ 25 1011.8 $$ >>>>>>>>>>>>>>>>>>>>>>>>>>>> KEY <<<<<<<<<<<<<<<<<<<<<<<<<<< > < > SKY/WX - SKY CONDITION/PRESENT WEATHER < > TMP - TEMPERATURE IN FAHRENHEIT < > DP - DEWPOINT IN FAHRENHEIT < > RH - RELATIVE HUMIDITY IN PERCENT < > WIND - DIRECTION AND SPEED IN MPH < > PRES - MEAN SEA LEVEL PRESSURE IN INCHES OF HG < > WCI - WIND CHILL INDEX < > VSB - VISIBILITY IN MILES < > HX - HEAT INDEX < > TC - TEMPERATURE IN CELSIUS < > VRB - VARIABLE WIND DIRECTION < > < >>>>>>>>>>>>>>>>>>>>>>>>>>>> KEY <<<<<<<<<<<<<<<<<<<<<<<<<<<

USA.gov is the U.S. government's official web portal to all federal, state and local government web resources and services.